Location: ?????
(31.8092°N, 35.2590°E)
Time: 03:00:01
(UTC+00:00)

NOSS 0 Rocket - Pass Details

Date: 20 June 2021
Orbit: 934 x 956 km, 70.0° (Epoch: 04 August)

Event Time Altitude Azimuth Distance (km) Brightness Sun altitude
Exits shadow 19:34:05 73° 137° (SE) 989 3.7 -27.0°
Maximum altitude 19:34:24 74° 109° (ESE) 981 3.8 -27.0°
Drops below altitude 10° 19:40:36 10° 25° (NNE) 2,676 6.7 -27.7°
Sets 19:43:08 0° 24° (NNE) 3,627 7.5 -28.0°
